Theta_e
329 337 348 348 345 344 344 344 345 346 346 346 348 347 345 343 341 340 340 339 341 341 342 340 340 342 342 342 341 343 344 345 346 345 345 345 345 345 343 343 343 339 344
332 339 345 348 346 344 343 343 344 346 345 345 347 346 344 342 340 339 338 339 341 340 340 339 338 338 339 339 339 339 339 341 341 341 341 342 342 342 341 341 341 338 341
335 341 344 347 346 343 343 342 343 344 344 344 347 346 344 342 340 339 337 339 341 339 338 340 338 337 336 336 337 337 337 336 337 337 337 330 332 337 338 337 336 337 337
337 340 342 345 346 344 344 344 343 342 343 342 346 346 343 341 338 338 336 338 340 338 339 340 339 337 335 335 335 336 335 335 334 333 329 331 333 339 342 341 341 340 340
337 339 342 344 346 344 345 343 341 342 343 343 344 344 343 340 337 337 335 337 339 337 338 340 337 337 335 334 334 335 336 335 333 330 330 332 333 338 339 338 337 338 338
336 339 342 345 345 343 343 341 340 340 341 342 343 344 342 339 336 336 335 337 338 338 338 338 338 336 335 336 337 337 336 333 328 325 329 332 331 337 337 335 335 334 334
335 338 342 344 345 344 342 341 340 340 339 341 343 343 340 337 335 334 334 335 334 335 335 339 338 337 337 336 336 335 333 330 322 322 327 329 331 335 335 334 333 333 333
334 338 341 338 340 342 342 341 341 340 340 340 341 341 337 336 335 334 334 334 334 333 337 339 338 336 335 335 334 332 330 327 323 321 322 328 332 333 333 331 330 330 329
335 337 339 338 337 336 338 338 339 339 339 340 340 338 335 334 336 334 334 335 332 333 335 336 335 334 334 332 332 330 328 327 320 321 324 325 331 331 330 329 328 327 326
332 335 338 337 336 335 334 332 334 335 336 337 336 334 332 332 332 332 330 333 333 332 333 333 334 333 332 330 329 328 326 325 320 320 321 325 329 329 327 325 324 323 323
332 334 337 338 336 334 333 330 330 331 331 331 330 327 324 323 323 323 326 331 332 331 333 332 331 330 328 327 325 323 322 319 320 321 321 326 326 326 325 322 322 321 321
329 333 335 336 336 334 335 331 330 328 327 326 324 323 322 319 319 321 322 327 329 328 332 330 328 323 317 313 314 318 315 320 321 321 319 326 325 321 322 320 321 319 319
330 332 333 334 335 336 335 332 329 326 323 322 321 320 319 316 316 318 319 319 319 320 320 320 315 312 311 311 311 312 313 317 318 319 322 325 324 321 320 319 319 318 317
330 331 333 334 334 335 335 333 333 329 322 319 319 319 316 314 313 314 316 315 315 313 311 310 310 309 309 310 310 310 311 314 315 316 318 321 323 321 320 318 318 317 317
327 331 332 333 333 334 334 333 332 331 324 320 318 318 316 314 312 312 313 313 313 311 309 308 308 308 307 307 307 308 309 311 312 313 313 316 322 321 320 319 317 317 316
326 328 331 332 333 333 332 332 332 331 329 321 317 317 316 315 312 311 311 312 311 310 308 307 306 305 305 305 305 305 305 306 308 309 308 312 320 322 319 319 318 316 316
324 325 327 331 332 332 332 332 332 332 331 326 319 318 317 315 313 311 310 310 310 309 308 305 304 303 302 302 303 304 302 302 302 303 304 306 312 319 320 318 318 317 317
320 323 326 330 331 332 332 332 332 332 331 329 324 320 318 318 316 314 313 313 312 312 309 306 305 303 303 303 302 301 301 301 301 299 299 301 302 306 316 321 318 317 316
319 320 324 328 329 330 331 332 332 332 331 329 326 322 322 320 318 316 314 314 313 311 309 306 303 303 300 299 299 298 298 298 297 297 298 298 299 301 302 311 316 317 316
314 318 323 326 328 329 330 329 329 331 330 329 327 324 323 321 319 317 315 313 312 311 308 306 301 299 298 299 297 294 293 293 293 295 296 297 296 297 298 299 300 304 315
309 313 318 322 326 328 328 327 327 328 329 330 330 327 323 323 321 318 317 314 312 310 310 306 300 297 294 294 293 290 289 288 289 291 292 293 294 294 294 295 296 299 302
300 309 314 320 323 326 328 329 328 328 328 329 330 330 327 324 322 319 318 315 313 311 309 305 302 296 294 294 294 290 292 292 287 289 289 292 292 295 292 293 294 295 298
292 295 307 313 319 324 327 324 315 316 315 322 327 328 328 327 325 323 320 318 314 313 309 307 304 302 298 291 294 296 288 291 288 285 288 289 291 293 293 292 293 293 295
295 293 295 305 312 317 322 322 322 324 322 324 326 328 328 328 328 325 323 320 317 314 312 308 306 305 305 296 294 294 293 292 291 291 286 286 288 289 292 293 293 293 293
295 296 296 297 305 313 318 323 322 322 323 319 316 318 324 325 327 327 325 322 319 317 314 312 308 305 306 304 297 294 295 292 290 288 295 288 284 287 290 291 293 293 292
295 296 297 301 304 309 314 317 318 320 317 311 310 312 316 320 323 325 324 324 321 319 316 313 310 307 306 307 302 303 298 293 294 290 288 294 284 286 287 289 290 292 294
Wind_Speed
4 6 11 13 12 12 12 11 11 11 12 13 14 17 17 16 16 15 15 15 15 16 17 17 15 15 17 17 16 18 18 20 20 21 21 21 21 21 21 19 17 15 23
8 5 9 12 12 12 12 11 10 10 12 12 13 16 16 15 14 15 14 14 15 17 15 16 17 17 17 17 17 17 16 16 16 15 16 18 19 19 20 19 19 17 20
10 6 6 12 13 12 12 12 10 10 11 11 14 15 16 15 14 14 14 12 14 16 15 16 16 17 17 16 17 17 17 16 16 16 14 7 9 16 17 15 16 18 18
10 5 6 12 13 13 12 11 10 11 10 11 12 15 15 14 13 14 13 12 13 15 15 15 17 16 16 16 17 18 16 14 13 12 5 5 9 17 20 21 21 20 20
7 6 7 12 13 13 12 12 11 10 10 11 10 14 14 14 12 13 13 11 13 13 13 16 15 16 16 15 16 15 14 15 13 8 9 8 9 16 20 21 19 21 19
6 6 9 11 13 13 13 12 12 11 11 11 10 14 14 15 12 12 12 11 11 12 12 14 15 15 16 15 13 16 16 15 12 7 8 10 9 17 18 18 19 19 19
7 7 7 11 12 13 12 12 11 11 11 10 11 13 12 12 12 12 12 10 12 11 12 15 15 15 15 15 15 18 17 15 8 7 7 9 10 17 18 18 18 18 19
8 7 6 9 10 11 11 11 10 10 9 10 11 12 11 11 12 12 12 11 11 10 11 14 15 17 16 14 17 15 15 13 7 6 6 7 14 17 17 17 17 16 17
6 7 5 5 7 8 9 8 9 9 9 9 9 10 11 10 11 11 10 11 11 10 10 13 14 15 15 14 14 14 13 11 7 5 8 5 15 16 15 16 15 15 16
6 6 9 5 5 5 6 7 8 8 8 8 8 9 9 9 9 9 8 9 12 10 11 12 13 13 14 13 13 12 11 10 6 5 5 6 16 15 14 14 13 13 13
5 7 10 7 6 5 5 5 7 7 7 8 8 9 7 4 5 6 5 7 11 11 11 12 12 12 13 12 12 11 9 3 3 4 3 14 14 12 13 10 12 11 12
12 10 11 10 10 6 4 6 5 5 4 4 5 5 4 5 4 5 5 6 9 11 11 11 11 10 8 4 4 7 3 4 3 3 3 14 13 9 10 9 11 9 10
14 11 12 12 10 10 7 5 2 2 3 3 5 5 4 4 3 3 2 3 3 5 3 5 5 3 5 4 4 4 4 4 2 3 5 12 15 8 8 8 8 8 9
13 14 13 13 11 10 6 5 5 4 3 3 4 5 4 3 4 3 3 3 3 2 4 3 3 4 5 5 5 5 4 3 2 2 3 8 13 10 8 7 7 8 8
12 14 14 13 11 9 9 6 6 6 4 4 4 5 4 4 4 4 3 3 3 3 3 3 3 3 4 4 4 5 5 4 4 2 2 5 11 11 9 9 7 7 7
11 12 13 11 11 10 9 9 7 7 7 4 4 5 6 4 4 4 4 3 3 3 3 3 3 3 3 2 3 3 3 3 3 3 2 3 10 11 10 9 9 8 7
9 8 12 14 14 13 13 11 9 8 7 7 6 6 7 6 6 5 4 4 4 4 5 4 3 3 3 2 1 1 1 3 3 3 2 2 3 9 11 12 11 10 10
6 10 10 10 13 15 13 12 10 10 10 8 7 7 9 9 9 8 6 5 4 4 3 3 3 3 2 2 2 2 1 1 3 2 2 3 3 3 6 11 13 13 12
10 9 11 12 13 14 12 9 10 11 9 8 8 8 11 10 10 8 7 6 8 6 5 5 2 2 3 3 2 1 1 2 3 2 5 4 5 5 4 3 11 12 14
9 8 10 10 12 12 9 7 5 6 7 6 8 9 13 11 12 10 7 7 8 7 6 6 5 2 2 3 2 0 2 3 3 3 4 4 4 5 4 5 3 4 12
8 9 11 11 13 10 9 9 8 10 9 8 7 10 13 12 13 12 8 8 9 10 11 9 4 4 2 3 3 2 3 5 5 5 4 4 6 6 5 5 4 4 4
7 10 9 12 11 12 10 10 7 8 7 9 8 9 11 11 12 12 11 10 11 8 10 11 9 4 3 7 3 2 3 3 5 9 7 8 9 5 6 6 6 6 5
5 7 7 9 9 10 12 4 3 4 2 4 7 8 10 12 13 14 15 12 12 10 10 12 13 15 9 6 7 6 1 7 1 1 10 8 9 7 7 6 7 6 6
6 3 6 6 8 7 8 7 11 11 10 10 9 9 9 11 12 13 15 14 13 11 12 13 13 13 9 10 5 10 5 4 5 3 3 6 9 11 12 9 9 9 8
7 7 5 2 5 6 7 10 8 9 6 3 3 6 9 8 11 12 13 14 14 11 13 15 12 14 13 9 10 3 11 3 0 3 6 3 3 9 11 12 10 10 11
7 7 7 7 3 1 5 6 7 9 6 3 3 4 5 6 7 10 9 12 14 13 13 13 15 16 15 14 10 11 9 7 11 9 9 10 4 4 9 8 10 11 10
Wind_Direction
207 169 150 133 127 121 110 105 108 103 98 92 102 107 102 94 89 86 87 86 87 87 84 87 80 78 79 72 74 72 73 71 70 72 74 73 73 75 74 69 66 68 69
137 162 150 134 129 121 116 110 105 108 100 98 106 113 107 98 92 93 91 94 91 89 90 90 87 82 83 81 80 82 80 72 73 71 70 74 75 74 72 69 66 67 69
141 166 155 128 127 123 119 118 113 107 110 105 109 113 106 98 96 95 96 98 98 92 96 97 91 86 85 86 88 89 86 84 66 65 67 66 76 78 79 85 80 81 83
143 152 133 134 132 132 129 123 118 118 120 112 106 111 104 99 94 93 96 101 100 92 93 106 92 89 89 90 89 87 79 69 63 60 50 57 91 85 83 80 79 79 79
141 140 133 136 135 138 132 126 123 123 124 118 105 117 110 103 97 101 102 109 97 95 95 99 96 91 90 91 89 88 76 68 54 53 63 65 72 77 78 73 69 67 67
136 137 140 142 144 145 133 134 133 128 126 119 112 118 115 105 107 106 110 106 100 92 106 100 98 98 100 97 92 94 82 73 56 51 57 65 69 78 75 75 69 72 69
141 138 146 152 150 144 142 140 135 133 133 129 117 116 110 113 115 117 116 116 112 98 109 113 109 106 101 95 89 86 84 74 60 51 60 71 73 80 79 75 76 73 76
143 142 146 154 146 145 147 146 143 139 138 137 128 126 126 127 126 126 125 127 119 108 99 100 107 102 99 101 95 94 84 74 64 57 45 77 87 84 82 80 80 80 80
135 140 138 149 151 147 148 147 141 141 141 135 132 138 138 139 130 131 130 133 123 120 120 109 105 106 106 104 101 93 87 83 73 60 72 61 88 86 87 88 84 84 86
144 144 157 142 145 148 153 149 141 141 141 133 124 117 117 118 119 120 122 138 128 123 122 125 111 110 108 102 98 93 85 78 78 73 76 89 86 87 85 87 89 94 92
155 162 170 161 155 150 154 160 144 145 142 126 119 119 106 112 110 109 133 133 131 135 122 127 129 111 103 97 99 96 92 84 92 89 83 95 90 98 102 106 103 96 97
187 184 183 179 176 158 155 152 150 152 146 137 129 128 117 128 130 129 129 117 127 147 130 135 132 117 98 93 88 91 85 92 71 92 92 107 111 116 110 111 109 113 110
191 191 189 186 182 173 171 161 142 144 138 137 143 141 136 119 114 107 106 89 104 105 81 108 111 90 107 109 95 92 81 87 72 88 122 126 114 114 114 113 119 122 118
194 199 194 192 189 185 178 171 167 164 154 161 166 156 140 140 143 143 141 138 116 110 118 120 113 115 106 103 114 112 101 99 79 106 115 131 127 138 141 142 136 136 133
194 199 200 196 192 187 182 180 178 176 175 173 167 165 153 158 161 150 157 151 137 124 136 136 129 129 126 125 120 135 137 124 138 150 124 184 143 153 164 158 158 150 152
196 194 195 194 193 189 189 187 186 185 179 168 168 179 168 160 158 161 163 175 158 153 141 149 156 149 137 132 149 147 148 121 159 162 156 230 157 174 180 176 173 175 171
199 182 189 193 196 197 200 196 197 191 178 183 186 175 174 167 168 164 166 181 178 163 155 140 121 103 121 103 167 233 202 170 179 183 189 243 174 176 188 196 191 186 184
187 189 188 189 193 199 201 202 202 200 199 187 183 180 187 186 181 176 179 191 167 167 158 163 158 141 166 190 159 172 193 331 324 311 306 285 254 190 207 204 192 199 202
202 189 192 192 194 196 198 197 203 202 197 191 176 182 189 189 185 187 192 186 169 170 173 167 151 149 172 165 166 169 208 224 232 260 247 241 259 230 197 209 213 205 204
206 202 200 196 202 197 195 190 189 200 203 196 184 188 185 192 191 190 192 179 172 174 171 182 158 150 157 171 136 263 289 284 276 243 246 260 242 254 236 209 197 199 202
208 195 197 193 202 187 193 196 204 211 206 209 201 192 192 188 188 193 195 188 183 188 193 177 140 175 162 140 110 307 284 227 232 252 253 252 250 237 233 230 220 206 214
229 217 204 209 198 199 200 207 204 200 213 216 209 203 195 194 189 189 199 196 195 192 183 176 180 147 161 175 160 35 260 307 250 222 205 214 227 220 241 236 224 223 219
272 238 218 218 212 210 211 173 93 78 66 182 213 212 201 194 198 197 198 199 197 199 197 192 190 186 196 186 221 157 174 222 99 170 230 221 217 230 222 225 231 235 223
4 333 235 226 214 211 188 194 203 212 213 219 218 219 215 204 207 203 203 199 200 198 201 201 199 204 188 203 198 239 247 152 203 279 246 234 212 212 222 219 218 218 221
17 13 355 279 232 215 193 204 204 223 226 210 181 196 217 215 216 220 209 202 203 204 207 205 204 207 208 200 205 161 221 191 223 291 266 232 278 248 225 218 218 221 209
21 29 22 16 16 258 207 207 200 217 212 185 188 199 209 218 225 228 218 211 209 209 207 208 206 204 209 218 208 217 197 182 215 205 241 255 218 238 230 225 234 222 223